This is the latest recevied weather packets stored in our database for station/object WC4PEM-8. If no packets are shown the sender has not sent any weather packets the latest 10 day(s).
| Time | Temp. | Humidity | Pressure | Rain* | Wind** | Luminosity | Snow |
|---|---|---|---|---|---|---|---|
| 1777907915 | 23.89° C | 57% | 1017.4 hPa | 0 mm | - | - | - |
| 1777907760 | 24.44° C | 58% | 1017.4 hPa | 0 mm | - | - | - |
| 1777907460 | 24.44° C | 56% | 1017.5 hPa | 0 mm | - | - | - |
| 1777907160 | 24.44° C | 55% | 1017.4 hPa | 0 mm | - | - | - |
| 1777906860 | 24.44° C | 55% | 1017.3 hPa | 0 mm | - | - | - |
| 1777906560 | 24.44° C | 57% | 1017.5 hPa | 0 mm | - | - | - |
| 1777906556 | 24.44° C | 58% | 1017.5 hPa | 0 mm | - | - | - |
| 1777906260 | 24.44° C | 58% | 1017.5 hPa | 0 mm | - | - | - |
| 1777905960 | 23.89° C | 57% | 1017.4 hPa | 0 mm | - | - | - |
| 1777905660 | 23.89° C | 58% | 1017.4 hPa | 0 mm | - | - | - |
| 1777905360 | 23.89° C | 59% | 1017.3 hPa | 0 mm | - | - | - |
| 1777905060 | 23.89° C | 57% | 1017.4 hPa | 0 mm | - | - | - |
| 1777904760 | 23.89° C | 61% | 1017.4 hPa | 0 mm | - | - | - |
| 1777904460 | 23.33° C | 59% | 1017.4 hPa | 0 mm | - | - | - |
| 1777904160 | 23.33° C | 57% | 1017.4 hPa | 0 mm | - | - | - |
| 1777903860 | 23.33° C | 58% | 1017.4 hPa | 0 mm | - | - | - |
| 1777903591 | 23.89° C | 62% | 1017.4 hPa | 0 mm | - | - | - |
| 1777903560 | 23.89° C | 62% | 1017.4 hPa | 0 mm | - | - | - |
| 1777903260 | 23.33° C | 64% | 1017.3 hPa | 0 mm | - | - | - |
| 1777902960 | 22.78° C | 67% | 1017.4 hPa | 0 mm | - | - | - |
| 1777902660 | 22.78° C | 66% | 1017.3 hPa | 0 mm | - | - | - |
| 1777902360 | 22.78° C | 68% | 1017.3 hPa | 0 mm | - | - | - |
| 1777902060 | 22.78° C | 68% | 1017.2 hPa | 0 mm | - | - | - |
| 1777901760 | 22.78° C | 70% | 1017.3 hPa | 0 mm | - | - | - |
| 1777901690 | 22.22° C | 71% | 1017.1 hPa | 0 mm | - | - | - |
* Rain latest hour (hover to see other rain measurements)
** Current wind speed in m/s (hover to see current wind gust speed)